#timestamp,LO_Frequency,Hit,StdDev 
1587394815.5,286046998.9,N
1587394835.3,286046998.1,N
1587394855.2,286047000.8,N
1587394875.0,286046999.8,N
1587394875.9,286046999.8,N
1587394895.8,286046998.1,N
1587394915.6,286046998.4,N
1587394935.4,286046998.6,N
1587394955.3,286046999.2,N
1587394975.1,286046998.5,N
1587394995.8,286046998.6,N
1587395015.7,286047000.5,N
1587395035.5,286046999.2,N
1587395055.4,286046997.6,N
1587395075.2,286046995.3,N
1587395095.0,286046997.0,N
1587395095.9,286046997.0,N
1587395115.8,286047000.6,N
1587395135.6,286047002.1,N
1587395155.2,286046998.3,N
1587395175.0,286047001.1,N
1587395175.9,286047001.1,N
1587395195.8,286046999.0,N
1587395215.6,286046995.6,N
1587395235.5,286046993.6,Y
1587395255.3,286046993.8,P
1587395275.1,286046993.8,N
1587395295.9,286046994.6,N
1587395315.7,286046995.9,N
1587395335.5,286046995.0,N
1587395355.4,286046995.3,N
1587395375.2,286046998.0,N
1587395395.1,286046999.5,N
1587395396.0,286046999.5,N
1587395415.8,286046999.4,N
1587395435.6,286046999.2,N
1587395455.5,286047001.0,N
1587395475.3,286047000.8,N
1587395495.1,286046999.1,N
1587395515.9,286047000.8,N
1587395535.7,286047001.9,N
1587395555.6,286047001.3,N
1587395575.4,286047002.6,N
1587395595.2,286047000.7,N
1587395615.1,286046998.2,N
1587395616.0,286046998.2,N
1587395635.8,286046999.0,N
1587395655.7,286046995.0,N
1587395675.5,286047000.3,N
1587395695.3,286047003.6,N
1587395715.2,286047001.0,N
1587395735.0,286046998.5,N
1587395735.9,286046998.5,N
1587395755.8,286047000.6,N
1587395775.6,286047000.6,N
1587395795.4,286046999.9,N
1587395815.3,286046998.2,N
1587395835.1,286047000.0,N
1587395855.8,286046998.1,N
1587395875.7,286047000.5,N
1587395895.5,286047000.2,N
1587395915.4,286047000.4,N
1587395935.2,286047000.8,N
1587395955.0,286046996.6,N
1587395955.9,286046996.6,N
1587395975.8,286046999.4,N
1587395995.6,286046998.1,N
1587396015.5,286047001.2,N
1587396035.3,286046999.9,N
1587396055.1,286047002.5,N
1587396075.9,286047000.6,N
1587396095.7,286047000.7,N
1587396115.5,286047001.7,N
1587396135.4,286047004.1,N
1587396155.2,286047004.0,N
1587396175.1,286047002.2,N
1587396176.0,286047002.2,N
1587396195.8,286047004.0,N
1587396215.6,286047003.4,N
1587396235.5,286047003.6,N
1587396255.3,286047005.9,N
1587396275.2,286047003.6,N
1587396295.9,286047004.0,N
1587396315.7,286047003.4,N
1587396335.6,286047003.1,N
1587396355.4,286047003.6,N
1587396375.2,286047004.3,N
1587396395.1,286046999.7,N
1587396396.0,286046999.7,N
1587396415.8,286047000.0,N
1587396435.7,286047002.0,N
1587396455.5,286046998.1,N
1587396475.3,286046996.8,N
1587396495.2,286046999.6,N
1587396515.0,286046998.9,N
1587396515.9,286046998.9,N
1587396535.8,286046998.8,N
1587396555.6,286047000.7,N
1587396575.4,286046999.4,N
1587396595.3,286046999.3,N
1587396615.1,286046999.3,N
1587396635.8,286046997.8,N
1587396655.7,286046996.9,N
1587396675.5,286046999.5,N
1587396695.4,286046999.1,N
1587396715.2,286046997.5,N
1587396735.0,286046996.5,N
1587396735.9,286046996.5,N
1587396755.8,286046999.3,N
1587396775.6,286046999.9,N
1587396795.5,286047001.1,N
1587396815.3,286047002.6,N
1587396835.1,286047003.4,N
1587396855.9,286047005.5,N
1587396875.7,286047004.7,N
1587396895.5,286047006.0,N
1587396915.4,286047005.3,N
1587396935.2,286047003.5,N
1587396955.1,286047004.4,N
1587396956.0,286047004.4,N
1587396975.8,286047002.5,N
1587396995.6,286047001.6,N
1587397015.5,286047003.0,N
1587397035.3,286047001.6,N
1587397055.2,286047001.4,N
1587397075.9,286047003.1,N
1587397095.7,286047005.8,N
1587397115.6,286047003.7,N
1587397135.4,286047005.4,N
1587397155.2,286047005.8,N
1587397175.1,286047003.8,N
1587397176.0,286047003.8,N
1587397195.8,286047001.6,N
1587397215.7,286047001.7,N
1587397235.5,286047002.6,N
1587397255.3,286047002.8,N
1587397275.2,286047001.0,N
1587397295.0,286046998.3,N
1587397295.9,286046998.3,N
1587397315.8,286046998.3,N
1587397335.6,286046999.4,N
1587397355.4,286047000.5,N
1587397375.3,286047001.0,N
1587397395.1,286047002.2,N
1587397415.8,286047003.2,N
1587397435.7,286047003.0,N
1587397455.5,286047005.5,N
1587397475.4,286047003.8,N
1587397495.2,286047004.2,N
1587397515.0,286047002.8,N
1587397515.9,286047002.8,N
1587397535.8,286046999.8,N
1587397555.6,286047000.4,N
1587397575.5,286047000.5,N
1587397595.3,286047004.8,N
1587397615.1,286047003.8,N
1587397635.9,286047003.1,N
1587397655.7,286047003.9,N
1587397675.5,286047003.6,N
1587397695.4,286047003.2,N
1587397715.2,286047003.9,N
1587397735.1,286047001.8,N
1587397736.0,286047001.8,N
1587397755.8,286047003.5,N
1587397775.6,286047001.8,N
1587397795.5,286047000.2,N
1587397815.3,286046998.6,N
1587397835.2,286046997.6,N
1587397855.9,286046995.3,N
1587397875.7,286046996.3,N
1587397895.6,286046996.6,N
1587397915.4,286046998.4,N
1587397935.2,286047000.0,N
1587397955.1,286046999.0,N
1587397956.0,286046999.0,N
1587397975.8,286046997.1,N
1587397995.7,286046995.1,N
1587398015.5,286046997.1,N
1587398035.3,286047001.1,N
1587398055.2,286046999.9,N
1587398075.0,286047002.3,N
1587398075.9,286047002.3,N
1587398095.8,286047003.7,N
1587398115.6,286047001.5,N
1587398135.4,286047001.8,N
1587398155.3,286047000.6,N
1587398175.1,286046998.1,N
1587398195.8,286046998.5,N
1587398215.7,286047000.9,N
1587398235.5,286047000.4,N
1587398255.4,286047000.2,N
1587398275.2,286047000.7,N
1587398295.0,286047000.8,N
1587398295.9,286047000.8,N
1587398315.8,286046998.1,N
1587398335.6,286046998.7,N
1587398355.5,286046998.8,N
1587398375.3,286047002.5,N
1587398395.1,286046999.7,N
